AFR194 LFPG-VOBL

Flight info

Callsign AFR194
Flight time N/A
Altitude 35000
Route BUBLI DCT LUVAL DCT MIRGU DCT BEGAR DCT TRA DCT GAMSA DCT GEDSO DCT PODET DCT ZINPE DCT NASSY DCT OKLOP DCT ETIDA DCT UDROS UN743 GAKSU UT310 SIN UN644 KARDE UL851 TBN UR317 REBLO/N0489F370 DCT MATAL T916 SUBUT T923 ERLEV M11 RODAR A909 TUNEK B143 KRS A240 INRAK B449 DOLOS B475 NINOP B801 RANAH L750 ZB G202 RK P628 NOKOK/N0489F390 P628 NIKOT/N0493F380 A474 PRA/N0488F390 L518 HIA Q21 LURGI/N0489F380 Q21 TELUV TELUV7F
Aircraft A359/H-SDE2E3GHIJ3J4J5LM1ORWXY/LB1D1

Departure

Time 2026-05-05 21:07
Airport Charles de Gaulle International Airport (LFPG)

Arrival

Time N/A
Airport Kempegowda International Airport Bengaluru (VOBL)
Time Latitude Longitude Altitude Speed Heading
2026-05-05 20:11 49.00286 2.58625 361 ft 0 kts 265°
2026-05-05 20:55 49.00288 2.58659 363 ft 4 kts 266°
2026-05-05 20:56 49.00287 2.58698 364 ft 4 kts 286°
2026-05-05 20:56 49.00275 2.58734 368 ft 4 kts 316°
2026-05-05 20:56 49.00255 2.58752 365 ft 2 kts 354°
2026-05-05 20:56 49.00253 2.58753 366 ft 0 kts 355°
2026-05-05 21:01 49.00266 2.58765 369 ft 2 kts 56°
2026-05-05 21:01 49.00266 2.58774 369 ft 2 kts 82°
2026-05-05 21:01 49.00235 2.58788 369 ft 7 kts 198°
2026-05-05 21:02 49.00144 2.58768 363 ft 19 kts 178°
2026-05-05 21:02 49.00031 2.58661 367 ft 25 kts 261°
2026-05-05 21:02 49.00014 2.58349 366 ft 34 kts 266°
2026-05-05 21:02 48.99994 2.57976 368 ft 35 kts 266°
2026-05-05 21:03 48.99978 2.57612 363 ft 34 kts 266°
2026-05-05 21:03 48.99959 2.57256 369 ft 33 kts 265°
2026-05-05 21:03 48.99936 2.56911 360 ft 32 kts 266°
2026-05-05 21:03 48.99918 2.56575 368 ft 31 kts 265°
2026-05-05 21:04 48.99902 2.56249 367 ft 30 kts 265°
2026-05-05 21:04 48.99895 2.55941 360 ft 28 kts 277°
2026-05-05 21:04 48.99838 2.55791 367 ft 16 kts 182°
2026-05-05 21:04 48.99744 2.55803 366 ft 9 kts 173°
2026-05-05 21:05 48.99732 2.55805 365 ft 0 kts 174°
2026-05-05 21:06 48.99727 2.55806 365 ft 3 kts 173°
2026-05-05 21:06 48.99699 2.55811 364 ft 11 kts 174°
2026-05-05 21:06 48.99604 2.55878 365 ft 15 kts 105°
2026-05-05 21:06 48.99610 2.56016 360 ft 14 kts 85°
2026-05-05 21:07 48.99631 2.56430 367 ft 70 kts 85°
2026-05-05 21:07 48.99687 2.57475 366 ft 126 kts 85°
2026-05-05 21:07 48.99770 2.59062 366 ft 173 kts 85°
2026-05-05 21:07 48.99846 2.60902 1017 ft 168 kts 82°
2026-05-05 21:08 48.99941 2.62720 1569 ft 178 kts 79°
2026-05-05 21:08 49.00075 2.64675 2003 ft 195 kts 81°
2026-05-05 21:08 49.00199 2.66803 2508 ft 205 kts 82°
2026-05-05 21:08 49.00314 2.68990 2892 ft 215 kts 83°
2026-05-05 21:09 49.00440 2.71339 3150 ft 232 kts 83°
2026-05-05 21:09 49.00577 2.73883 3421 ft 249 kts 84°
2026-05-05 21:09 49.00683 2.76566 3890 ft 257 kts 89°
2026-05-05 21:09 49.00522 2.79309 4417 ft 263 kts 97°
2026-05-05 21:10 49.00245 2.82084 4955 ft 267 kts 98°
2026-05-05 21:10 48.99955 2.84902 5547 ft 270 kts 98°
2026-05-05 21:10 48.99667 2.87748 6192 ft 272 kts 98°
2026-05-05 21:10 48.99335 2.90596 6805 ft 275 kts 103°
2026-05-05 21:11 48.98882 2.93443 7411 ft 278 kts 104°
2026-05-05 21:11 48.98413 2.96282 8039 ft 281 kts 104°
2026-05-05 21:11 48.97924 2.99172 8686 ft 284 kts 105°
2026-05-05 21:11 48.97424 3.02093 9371 ft 286 kts 105°
2026-05-05 21:12 48.96911 3.05060 9994 ft 291 kts 106°
2026-05-05 21:12 48.96380 3.08119 10303 ft 306 kts 106°
2026-05-05 21:12 48.95824 3.11296 10586 ft 322 kts 106°
2026-05-05 21:12 48.95235 3.14667 10858 ft 337 kts 106°
2026-05-05 21:13 48.94618 3.18186 11147 ft 352 kts 106°
2026-05-05 21:13 48.93978 3.21831 11582 ft 360 kts 106°
2026-05-05 21:13 48.93325 3.25543 12130 ft 365 kts 106°
2026-05-05 21:13 48.92663 3.29301 12730 ft 369 kts 107°
2026-05-05 21:14 48.91990 3.33099 13325 ft 373 kts 107°
2026-05-05 21:14 48.91307 3.36940 13878 ft 376 kts 107°
2026-05-05 21:14 48.90623 3.40789 14407 ft 379 kts 107°
2026-05-05 21:14 48.89931 3.44677 14941 ft 382 kts 107°
2026-05-05 21:15 48.89241 3.48545 15476 ft 385 kts 107°
2026-05-05 21:15 48.88537 3.52482 15966 ft 388 kts 107°
2026-05-05 21:15 48.87823 3.56469 16467 ft 392 kts 107°
2026-05-05 21:15 48.87104 3.60479 17011 ft 394 kts 107°
2026-05-05 21:16 48.86379 3.64508 17564 ft 397 kts 107°
2026-05-05 21:16 48.85646 3.68575 18109 ft 399 kts 107°
2026-05-05 21:16 48.84909 3.72651 18563 ft 402 kts 107°
2026-05-05 21:16 48.84418 3.75367 18743 ft 402 kts 107°
2026-05-05 21:17 48.83427 3.80832 18822 ft 402 kts 107°
2026-05-05 21:17 48.82933 3.83549 18831 ft 403 kts 107°
2026-05-05 21:17 48.81936 3.89018 19292 ft 406 kts 107°
2026-05-05 21:17 48.81183 3.93138 19910 ft 405 kts 107°
2026-05-05 21:18 48.80428 3.97261 20484 ft 406 kts 107°
2026-05-05 21:18 48.79670 4.01392 21016 ft 408 kts 107°
2026-05-05 21:18 48.79152 4.04207 21378 ft 409 kts 107°
2026-05-05 21:18 48.78385 4.08371 21920 ft 411 kts 107°
2026-05-05 21:19 48.77569 4.12480 22415 ft 412 kts 110°
2026-05-05 21:19 48.76388 4.16437 22911 ft 413 kts 121°
2026-05-05 21:19 48.74847 4.20187 23429 ft 415 kts 124°
2026-05-05 21:19 48.73225 4.23754 23826 ft 417 kts 126°
2026-05-05 21:20 48.71525 4.27326 24227 ft 419 kts 126°
2026-05-05 21:20 48.69796 4.30907 24629 ft 422 kts 126°
2026-05-05 21:20 48.68059 4.34507 25034 ft 424 kts 126°
2026-05-05 21:20 48.66327 4.38123 25429 ft 426 kts 126°
2026-05-05 21:21 48.64587 4.41777 25835 ft 428 kts 126°
2026-05-05 21:21 48.62847 4.45447 26213 ft 430 kts 126°
2026-05-05 21:21 48.61121 4.49096 26587 ft 433 kts 126°
2026-05-05 21:21 48.59362 4.52813 26987 ft 435 kts 126°
2026-05-05 21:22 48.57597 4.56541 27372 ft 437 kts 126°
2026-05-05 21:22 48.55824 4.60279 27757 ft 439 kts 126°
2026-05-05 21:22 48.54033 4.64049 28069 ft 443 kts 126°
2026-05-05 21:22 48.52237 4.67830 28433 ft 445 kts 126°
2026-05-05 21:23 48.50426 4.71637 28796 ft 447 kts 126°
2026-05-05 21:23 48.48625 4.75419 29130 ft 449 kts 126°
2026-05-05 21:23 48.46797 4.79246 29486 ft 451 kts 127°
2026-05-05 21:23 48.44960 4.83084 29826 ft 453 kts 127°
2026-05-05 21:24 48.43115 4.86934 30114 ft 455 kts 127°
2026-05-05 21:24 48.41253 4.90811 30363 ft 457 kts 127°
2026-05-05 21:24 48.39390 4.94685 30587 ft 460 kts 127°
2026-05-05 21:24 48.37500 4.98609 30809 ft 462 kts 127°
2026-05-05 21:25 48.35609 5.02530 31045 ft 464 kts 127°
2026-05-05 21:25 48.33707 5.06469 31244 ft 466 kts 127°
2026-05-05 21:25 48.31802 5.10433 31450 ft 469 kts 126°
2026-05-05 21:25 48.30109 5.14657 31591 ft 474 kts 118°
2026-05-05 21:26 48.28831 5.19239 31782 ft 478 kts 110°
2026-05-05 21:26 48.27856 5.24031 31956 ft 481 kts 108°
2026-05-05 21:26 48.26970 5.28894 32208 ft 482 kts 107°
2026-05-05 21:26 48.26130 5.33766 32488 ft 482 kts 106°
2026-05-05 21:27 48.25304 5.38647 32741 ft 483 kts 106°
2026-05-05 21:27 48.24484 5.43480 32985 ft 483 kts 106°
2026-05-05 21:27 48.23648 5.48346 33245 ft 483 kts 106°
2026-05-05 21:27 48.22800 5.53229 33456 ft 484 kts 107°
2026-05-05 21:28 48.21942 5.58122 33676 ft 484 kts 107°
2026-05-05 21:28 48.21078 5.63010 33874 ft 485 kts 107°
2026-05-05 21:28 48.20209 5.67903 34066 ft 485 kts 107°
2026-05-05 21:28 48.19338 5.72795 34256 ft 485 kts 107°
2026-05-05 21:29 48.18476 5.77616 34426 ft 485 kts 107°
2026-05-05 21:29 48.17600 5.82510 34592 ft 485 kts 107°
2026-05-05 21:29 48.16720 5.87411 34752 ft 486 kts 107°
2026-05-05 21:29 48.15840 5.92307 34849 ft 487 kts 107°
2026-05-05 21:30 48.14071 6.02103 34852 ft 487 kts 107°
2026-05-05 21:30 48.12292 6.11900 34857 ft 487 kts 107°
2026-05-05 21:31 48.10517 6.21622 34858 ft 487 kts 108°
2026-05-05 21:31 48.08721 6.31405 34860 ft 487 kts 108°
2026-05-05 21:32 48.06917 6.41185 34847 ft 487 kts 108°
2026-05-05 21:32 48.05103 6.50965 34868 ft 488 kts 108°
2026-05-05 21:33 48.03283 6.60728 34872 ft 488 kts 108°
2026-05-05 21:33 48.01651 6.70594 34875 ft 491 kts 103°
2026-05-05 21:34 48.00405 6.80577 34854 ft 492 kts 103°
2026-05-05 21:34 47.99204 6.90656 34873 ft 492 kts 103°
2026-05-05 21:35 47.98000 7.00728 34870 ft 492 kts 103°
2026-05-05 21:35 47.96780 7.10770 34881 ft 492 kts 103°
2026-05-05 21:36 47.95549 7.20789 34879 ft 492 kts 103°
2026-05-05 21:36 47.94295 7.30852 34881 ft 493 kts 103°
2026-05-05 21:37 47.93034 7.40911 34880 ft 494 kts 103°
2026-05-05 21:37 47.91766 7.50987 34878 ft 494 kts 103°
2026-05-05 21:38 47.90127 7.60910 34884 ft 490 kts 112°
2026-05-05 21:38 47.87829 7.70421 34882 ft 491 kts 114°
2026-05-05 21:39 47.85403 7.79966 34890 ft 492 kts 114°
2026-05-05 21:39 47.82964 7.89488 34890 ft 492 kts 114°
2026-05-05 21:40 47.80537 7.98960 34902 ft 492 kts 114°
2026-05-05 21:40 47.78094 8.08469 34898 ft 492 kts 114°
2026-05-05 21:41 47.75643 8.17981 34900 ft 492 kts 114°
2026-05-05 21:41 47.73189 8.27468 34912 ft 492 kts 114°
2026-05-05 21:42 47.70724 8.36955 34901 ft 492 kts 114°
2026-05-05 21:42 47.68260 8.46455 34906 ft 494 kts 114°
2026-05-05 21:43 47.66044 8.56101 34907 ft 497 kts 112°
2026-05-05 21:43 47.63912 8.65860 34904 ft 497 kts 112°
2026-05-05 21:44 47.61740 8.75589 34908 ft 496 kts 112°
2026-05-05 21:44 47.59545 8.85226 34895 ft 496 kts 113°
2026-05-05 21:45 47.57309 8.94940 34906 ft 499 kts 113°
2026-05-05 21:45 47.55059 9.04677 34905 ft 499 kts 113°
2026-05-05 21:46 47.52818 9.14342 34904 ft 499 kts 113°
2026-05-05 21:46 47.50555 9.24063 34891 ft 499 kts 114°
2026-05-05 21:47 47.48273 9.33810 34906 ft 502 kts 114°
2026-05-05 21:47 47.45982 9.43564 34913 ft 502 kts 114°
2026-05-05 21:48 47.43691 9.53270 34910 ft 502 kts 114°
2026-05-05 21:48 47.41397 9.63026 34905 ft 503 kts 112°
2026-05-05 21:49 47.39740 9.73160 34910 ft 509 kts 106°
2026-05-05 21:49 47.38307 9.83413 34910 ft 509 kts 106°
2026-05-05 21:50 47.36909 9.93620 34907 ft 511 kts 106°
2026-05-05 21:50 47.35476 10.03911 34896 ft 513 kts 107°
2026-05-05 21:51 47.34015 10.14240 34903 ft 515 kts 107°
2026-05-05 21:51 47.32544 10.24591 34900 ft 515 kts 107°
2026-05-05 21:52 47.30313 10.40113 34896 ft 515 kts 107°
2026-05-05 21:53 47.28825 10.50382 34891 ft 517 kts 107°
2026-05-05 21:53 47.27312 10.60767 34891 ft 517 kts 107°
2026-05-05 21:54 47.25793 10.71087 34883 ft 516 kts 108°
2026-05-05 21:54 47.24254 10.81441 34856 ft 517 kts 108°
2026-05-05 21:55 47.22722 10.91726 34893 ft 519 kts 108°
2026-05-05 21:55 47.21168 11.02104 34894 ft 519 kts 108°
2026-05-05 21:56 47.19605 11.12485 34891 ft 519 kts 108°
2026-05-05 21:56 47.18036 11.22852 34866 ft 519 kts 108°
2026-05-05 21:57 47.16465 11.33145 34874 ft 520 kts 108°
2026-05-05 21:57 47.14866 11.43529 34889 ft 519 kts 108°
2026-05-05 21:58 47.13264 11.53851 34881 ft 519 kts 108°
2026-05-05 21:58 47.11652 11.64190 34898 ft 520 kts 108°
2026-05-05 21:59 47.10025 11.74560 34916 ft 521 kts 108°
2026-05-05 21:59 47.08401 11.84868 34923 ft 521 kts 108°
2026-05-05 22:00 47.06548 11.95108 34940 ft 518 kts 113°
2026-05-05 22:00 47.04210 12.05065 34940 ft 516 kts 115°
2026-05-05 22:01 47.01848 12.15007 34938 ft 516 kts 114°
2026-05-05 22:01 46.99564 12.24936 34971 ft 516 kts 114°
2026-05-05 22:02 46.97299 12.34933 34979 ft 517 kts 114°
2026-05-05 22:02 46.95027 12.44956 34984 ft 519 kts 113°
2026-05-05 22:03 46.92741 12.54981 34980 ft 519 kts 107°
2026-05-05 22:03 46.90854 12.63300 34988 ft 518 kts 114°
2026-05-05 22:04 46.88161 12.74925 34963 ft 519 kts 114°
2026-05-05 22:04 46.85838 12.84920 34970 ft 521 kts 114°
2026-05-05 22:05 46.83876 12.93341 34967 ft 521 kts 114°
2026-05-05 22:05 46.81548 13.03315 34968 ft 522 kts 114°
2026-05-05 22:06 46.79196 13.13336 34947 ft 521 kts 114°
2026-05-05 22:06 46.76840 13.23330 34979 ft 520 kts 113°
2026-05-05 22:07 46.74469 13.33340 34976 ft 521 kts 114°
2026-05-05 22:07 46.72109 13.43261 34975 ft 521 kts 114°
2026-05-05 22:08 46.69719 13.53258 34947 ft 520 kts 113°
2026-05-05 22:08 46.67323 13.63230 34957 ft 522 kts 113°
2026-05-05 22:09 46.64919 13.73195 34947 ft 522 kts 113°
2026-05-05 22:09 46.62518 13.83109 34957 ft 522 kts 114°
2026-05-05 22:10 46.60089 13.93085 34948 ft 523 kts 113°
2026-05-05 22:10 46.57642 14.03093 34947 ft 525 kts 113°
2026-05-05 22:11 46.55204 14.13021 34943 ft 525 kts 113°
2026-05-05 22:11 46.52740 14.23015 34940 ft 525 kts 113°
2026-05-05 22:12 46.50267 14.32996 34936 ft 526 kts 112°
2026-05-05 22:12 46.47781 14.42990 34942 ft 525 kts 112°
2026-05-05 22:13 46.45294 14.52945 34958 ft 526 kts 113°
2026-05-05 22:13 46.42798 14.62894 34947 ft 527 kts 112°
2026-05-05 22:14 46.40275 14.72892 34985 ft 528 kts 112°
2026-05-05 22:14 46.37744 14.82889 34976 ft 528 kts 112°
2026-05-05 22:15 46.35213 14.92837 34955 ft 528 kts 112°
2026-05-05 22:15 46.32660 15.02825 34960 ft 528 kts 112°
2026-05-05 22:16 46.30103 15.12800 34958 ft 527 kts 112°
2026-05-05 22:16 46.27558 15.22680 34964 ft 527 kts 112°
2026-05-05 22:17 46.24989 15.32606 34963 ft 527 kts 112°
2026-05-05 22:17 46.22414 15.42519 34956 ft 524 kts 112°
2026-05-05 22:18 46.19854 15.52328 34960 ft 522 kts 112°
2026-05-05 22:18 46.17286 15.62126 34962 ft 522 kts 112°
2026-05-05 22:19 46.14674 15.71917 34964 ft 522 kts 113°
2026-05-05 22:19 46.12013 15.81656 34960 ft 522 kts 113°
2026-05-05 22:20 46.09363 15.91322 34960 ft 522 kts 113°
2026-05-05 22:20 46.06692 16.01064 34963 ft 522 kts 113°
2026-05-05 22:21 46.04019 16.10788 34959 ft 521 kts 113°
2026-05-05 22:21 46.01340 16.20495 34978 ft 523 kts 113°
2026-05-05 22:22 45.98650 16.30202 34963 ft 525 kts 113°
2026-05-05 22:22 45.95932 16.39971 34964 ft 525 kts 113°
2026-05-05 22:23 45.93212 16.49711 34970 ft 523 kts 113°
2026-05-05 22:23 45.90496 16.59395 34973 ft 522 kts 113°
2026-05-05 22:24 45.87786 16.69016 34971 ft 522 kts 113°
2026-05-05 22:24 45.85050 16.78693 34965 ft 522 kts 113°
2026-05-05 22:25 45.82318 16.88318 34986 ft 520 kts 113°
2026-05-05 22:25 45.79576 16.97942 34969 ft 520 kts 113°
2026-05-05 22:26 45.76849 17.07474 34967 ft 520 kts 113°
2026-05-05 22:26 45.74093 17.17064 34970 ft 518 kts 114°
2026-05-05 22:27 45.71207 17.26456 34968 ft 514 kts 115°
2026-05-05 22:27 45.68249 17.35751 34968 ft 514 kts 115°
2026-05-05 22:28 45.65299 17.45074 34967 ft 514 kts 115°
2026-05-05 22:28 45.62393 17.54319 34984 ft 511 kts 115°
2026-05-05 22:29 45.59474 17.63583 34983 ft 510 kts 115°
2026-05-05 22:29 45.56553 17.72810 34977 ft 508 kts 115°
2026-05-05 22:30 45.53650 17.81941 34981 ft 507 kts 115°
2026-05-05 22:30 45.50725 17.91107 34981 ft 506 kts 115°
2026-05-05 22:31 45.47817 18.00189 34981 ft 506 kts 115°
2026-05-05 22:31 45.44885 18.09312 34981 ft 506 kts 116°
2026-05-05 22:32 45.41796 18.18270 34980 ft 507 kts 119°
2026-05-05 22:32 45.38433 18.27111 34981 ft 508 kts 120°
2026-05-05 22:33 45.35072 18.35949 34982 ft 508 kts 119°
2026-05-05 22:33 45.31766 18.44759 34982 ft 508 kts 119°
2026-05-05 22:34 45.28421 18.53708 34982 ft 511 kts 119°
2026-05-05 22:34 45.25107 18.62556 34983 ft 512 kts 119°
2026-05-05 22:35 45.21751 18.71484 34982 ft 512 kts 119°
2026-05-05 22:35 45.18388 18.80394 34978 ft 512 kts 119°
2026-05-05 22:36 45.15019 18.89290 34983 ft 513 kts 119°
2026-05-05 22:36 45.11656 18.98143 34987 ft 513 kts 119°
2026-05-05 22:37 45.08262 19.07048 34983 ft 513 kts 119°
2026-05-05 22:37 45.04859 19.15947 34986 ft 513 kts 119°
2026-05-05 22:38 45.01452 19.24831 34986 ft 513 kts 119°
2026-05-05 22:38 44.98061 19.33642 34986 ft 513 kts 119°
2026-05-05 22:39 44.94641 19.42502 34994 ft 513 kts 119°
2026-05-05 22:39 44.91217 19.51342 34985 ft 513 kts 119°
2026-05-05 22:40 44.87784 19.60179 34990 ft 512 kts 119°
2026-05-05 22:40 44.84374 19.68927 34984 ft 512 kts 119°
2026-05-05 22:41 44.80931 19.77734 34989 ft 512 kts 119°
2026-05-05 22:41 44.77475 19.86546 34990 ft 513 kts 119°
2026-05-05 22:42 44.74034 19.95292 34991 ft 513 kts 119°
2026-05-05 22:42 44.70546 20.04129 34991 ft 513 kts 119°
2026-05-05 22:43 44.67098 20.12837 34995 ft 514 kts 119°
2026-05-05 22:43 44.63609 20.21621 34996 ft 515 kts 119°
2026-05-05 22:44 44.60110 20.30403 34996 ft 515 kts 119°
2026-05-05 22:44 44.56600 20.39186 34998 ft 514 kts 119°
2026-05-05 22:45 44.53125 20.47855 34998 ft 512 kts 119°
2026-05-05 22:45 44.49622 20.56566 34999 ft 512 kts 119°
2026-05-05 22:46 44.46112 20.65268 34991 ft 512 kts 119°
2026-05-05 22:46 44.42582 20.73990 34999 ft 515 kts 119°
2026-05-05 22:47 44.39069 20.82646 35005 ft 515 kts 119°
2026-05-05 22:47 44.35518 20.91368 35005 ft 515 kts 119°
2026-05-05 22:48 44.31966 21.00067 35012 ft 515 kts 119°
2026-05-05 22:48 44.28450 21.08650 35000 ft 510 kts 119°
2026-05-05 22:49 44.24922 21.17237 35004 ft 509 kts 119°
2026-05-05 22:49 44.21385 21.25819 35005 ft 509 kts 119°
2026-05-05 22:50 44.18449 21.32925 35006 ft 508 kts 119°
2026-05-05 22:50 44.14797 21.41354 35005 ft 507 kts 122°
2026-05-05 22:51 44.10987 21.49644 35008 ft 507 kts 122°
2026-05-05 22:51 44.07205 21.57875 35012 ft 510 kts 122°
2026-05-05 22:52 44.03380 21.66263 35015 ft 510 kts 121°
2026-05-05 22:52 43.99611 21.74541 35015 ft 509 kts 122°
2026-05-05 22:53 43.95819 21.82852 35017 ft 509 kts 122°
2026-05-05 22:53 43.92017 21.91156 35020 ft 509 kts 121°
2026-05-05 22:54 43.88210 21.99447 35021 ft 509 kts 121°
2026-05-05 22:54 43.84398 22.07722 35018 ft 509 kts 121°
2026-05-05 22:55 43.80575 22.15998 35019 ft 509 kts 122°
2026-05-05 22:55 43.76778 22.24196 35024 ft 509 kts 122°
2026-05-05 22:56 43.72943 22.32452 35022 ft 510 kts 122°
2026-05-05 22:56 43.69511 22.40990 35020 ft 508 kts 109°
2026-05-05 22:57 43.67882 22.50410 35002 ft 503 kts 95°
2026-05-05 22:57 43.67056 22.59997 35008 ft 503 kts 93°
2026-05-05 22:58 43.66342 22.69554 35025 ft 503 kts 93°
2026-05-05 22:58 43.65592 22.79199 35004 ft 504 kts 94°
2026-05-05 22:59 43.64807 22.88824 35007 ft 505 kts 94°
2026-05-05 22:59 43.64006 22.98410 35001 ft 506 kts 94°
2026-05-05 23:00 43.62782 23.12885 34990 ft 505 kts 94°
2026-05-05 23:00 43.61955 23.22553 34998 ft 506 kts 94°
2026-05-05 23:01 43.61129 23.32124 34990 ft 505 kts 94°
2026-05-05 23:01 43.60289 23.41757 34991 ft 505 kts 94°
2026-05-05 23:02 43.59446 23.51329 34990 ft 505 kts 95°
2026-05-05 23:02 43.58592 23.60931 34994 ft 504 kts 94°
2026-05-05 23:03 43.57730 23.70526 34987 ft 503 kts 94°
2026-05-05 23:03 43.56863 23.80103 34988 ft 503 kts 95°
2026-05-05 23:04 43.55991 23.89631 34987 ft 503 kts 95°
2026-05-05 23:04 43.55109 23.99185 34988 ft 502 kts 94°
2026-05-05 23:05 43.54218 24.08733 34985 ft 501 kts 94°
2026-05-05 23:05 43.53322 24.18262 34984 ft 501 kts 95°
2026-05-05 23:06 43.52423 24.27739 34989 ft 500 kts 95°
2026-05-05 23:06 43.51511 24.37253 34988 ft 500 kts 94°
2026-05-05 23:07 43.50593 24.46752 34988 ft 500 kts 94°
2026-05-05 23:07 43.49664 24.56281 34993 ft 500 kts 94°
2026-05-05 23:08 43.48735 24.65719 34994 ft 500 kts 95°
2026-05-05 23:08 43.47792 24.75228 34995 ft 499 kts 94°
2026-05-05 23:09 43.46850 24.84637 34998 ft 499 kts 94°
2026-05-05 23:09 43.45895 24.94106 34999 ft 499 kts 95°
2026-05-05 23:10 43.44931 25.03579 35019 ft 499 kts 95°
2026-05-05 23:10 43.43958 25.13055 35001 ft 499 kts 95°
2026-05-05 23:11 43.42985 25.22453 35002 ft 499 kts 95°
2026-05-05 23:11 43.41998 25.31915 35006 ft 499 kts 95°
2026-05-05 23:12 43.41009 25.41315 35032 ft 499 kts 95°
2026-05-05 23:12 43.40009 25.50738 35020 ft 498 kts 95°
2026-05-05 23:13 43.39001 25.60161 35018 ft 498 kts 95°
2026-05-05 23:13 43.37983 25.69607 35025 ft 498 kts 95°
2026-05-05 23:14 43.36962 25.79010 35030 ft 498 kts 95°
2026-05-05 23:14 43.35931 25.88425 35031 ft 497 kts 95°
2026-05-05 23:15 43.34899 25.97774 35032 ft 497 kts 95°
2026-05-05 23:15 43.33854 26.07170 35034 ft 497 kts 95°
2026-05-05 23:16 43.32799 26.16594 35049 ft 497 kts 96°
2026-05-05 23:16 43.31744 26.25936 35044 ft 497 kts 96°
2026-05-05 23:17 43.30675 26.35334 35048 ft 497 kts 96°
2026-05-05 23:17 43.29599 26.44718 35066 ft 497 kts 96°
2026-05-05 23:18 43.28516 26.54097 35069 ft 497 kts 96°
2026-05-05 23:18 43.27432 26.63419 35075 ft 497 kts 96°
2026-05-05 23:19 43.26336 26.72769 35060 ft 497 kts 96°
2026-05-05 23:19 43.25232 26.82119 35061 ft 497 kts 96°
2026-05-05 23:20 43.24125 26.91427 35070 ft 496 kts 97°
2026-05-05 23:20 43.23004 27.00778 35070 ft 495 kts 97°
2026-05-05 23:21 43.21879 27.10108 35070 ft 495 kts 97°
2026-05-05 23:21 43.20746 27.19440 35072 ft 496 kts 97°
2026-05-05 23:22 43.19614 27.28697 35076 ft 494 kts 97°
2026-05-05 23:22 43.18471 27.37974 35072 ft 492 kts 97°
2026-05-05 23:23 43.17324 27.47222 35071 ft 492 kts 97°
2026-05-05 23:23 43.16169 27.56466 35077 ft 492 kts 98°
2026-05-05 23:24 43.15017 27.65635 35073 ft 492 kts 98°
2026-05-05 23:24 43.13847 27.74875 35075 ft 492 kts 98°
2026-05-05 23:25 43.12670 27.84109 35073 ft 492 kts 98°
2026-05-05 23:25 43.11493 27.93281 35079 ft 492 kts 98°
2026-05-05 23:26 43.10302 28.02508 35076 ft 491 kts 98°
2026-05-05 23:26 43.09104 28.11721 35078 ft 491 kts 98°
2026-05-05 23:27 43.07901 28.20915 35080 ft 491 kts 98°
2026-05-05 23:27 43.06696 28.30064 35082 ft 491 kts 98°
2026-05-05 23:28 43.05479 28.39242 35075 ft 490 kts 98°
2026-05-05 23:28 43.04254 28.48426 35075 ft 490 kts 98°
2026-05-05 23:29 43.03022 28.57601 35072 ft 490 kts 98°
2026-05-05 23:29 43.01792 28.66706 35073 ft 490 kts 98°
2026-05-05 23:30 43.00757 28.74322 35075 ft 489 kts 98°
2026-05-05 23:30 42.99295 28.85015 35075 ft 489 kts 98°
2026-05-05 23:31 42.98038 28.94141 35075 ft 489 kts 98°
2026-05-05 23:31 42.96781 29.03214 35073 ft 488 kts 98°
2026-05-05 23:32 42.95510 29.12332 35069 ft 488 kts 98°
2026-05-05 23:32 42.94234 29.21436 35070 ft 488 kts 98°
2026-05-05 23:33 42.92948 29.30557 35067 ft 488 kts 98°
2026-05-05 23:33 42.91667 29.39586 35067 ft 488 kts 98°
2026-05-05 23:34 42.90366 29.48695 35069 ft 488 kts 98°
2026-05-05 23:34 42.89061 29.57783 35069 ft 488 kts 98°
2026-05-05 23:35 42.87755 29.66826 35067 ft 488 kts 98°
2026-05-05 23:35 42.86435 29.75901 35068 ft 488 kts 98°
2026-05-05 23:36 42.85109 29.84973 35065 ft 488 kts 98°
2026-05-05 23:36 42.83774 29.94058 35064 ft 488 kts 98°
2026-05-05 23:37 42.82441 30.03072 35064 ft 488 kts 98°
2026-05-05 23:37 42.81092 30.12138 35061 ft 487 kts 98°
2026-05-05 23:38 42.79746 30.21132 35051 ft 487 kts 98°
2026-05-05 23:38 42.78617 30.28641 35066 ft 486 kts 98°
2026-05-05 23:39 42.77253 30.37670 35049 ft 486 kts 98°
2026-05-05 23:39 42.75881 30.46693 35048 ft 486 kts 98°
2026-05-05 23:40 42.74506 30.55692 35047 ft 486 kts 98°
2026-05-05 23:40 42.73062 30.64680 35048 ft 487 kts 100°
2026-05-05 23:41 42.71305 30.73551 35071 ft 488 kts 101°
2026-05-05 23:41 42.69489 30.82406 35050 ft 488 kts 101°
2026-05-05 23:42 42.67704 30.91306 35048 ft 488 kts 101°
2026-05-05 23:42 42.65940 31.00215 35048 ft 488 kts 101°
2026-05-05 23:43 42.64175 31.09124 35051 ft 488 kts 101°
2026-05-05 23:43 42.62401 31.18035 35048 ft 488 kts 101°
2026-05-05 23:44 42.60630 31.26881 35045 ft 488 kts 101°
2026-05-05 23:44 42.58841 31.35778 35045 ft 488 kts 101°
2026-05-05 23:45 42.57041 31.44686 35046 ft 489 kts 101°
2026-05-05 23:45 42.55231 31.53605 35045 ft 489 kts 101°
2026-05-05 23:46 42.53429 31.62450 35045 ft 489 kts 101°
2026-05-05 23:46 42.51607 31.71350 35060 ft 489 kts 101°
2026-05-05 23:47 42.49780 31.80235 35043 ft 489 kts 101°
2026-05-05 23:47 42.47940 31.89149 35043 ft 490 kts 101°
2026-05-05 23:48 42.46109 31.97976 35049 ft 490 kts 101°
2026-05-05 23:48 42.44255 32.06878 35071 ft 490 kts 101°
2026-05-05 23:49 42.42413 32.15681 35049 ft 489 kts 101°
2026-05-05 23:49 42.40551 32.24548 35050 ft 489 kts 101°
2026-05-05 23:50 42.38684 32.33400 35049 ft 489 kts 102°
2026-05-05 23:50 42.36810 32.42247 35046 ft 489 kts 102°
2026-05-05 23:51 42.34926 32.51106 35046 ft 489 kts 102°
2026-05-05 23:51 42.33258 32.59994 35051 ft 485 kts 96°
2026-05-05 23:52 42.32162 32.68928 35047 ft 485 kts 94°
2026-05-05 23:52 42.31148 32.77936 35048 ft 485 kts 94°
2026-05-05 23:53 42.30138 32.86943 35048 ft 485 kts 94°
2026-05-05 23:53 42.29112 32.95948 35050 ft 485 kts 94°
2026-05-05 23:54 42.28076 33.04915 35047 ft 485 kts 95°
2026-05-05 23:54 42.27025 33.13941 35050 ft 486 kts 95°
2026-05-05 23:55 42.25966 33.22975 35054 ft 487 kts 95°
2026-05-05 23:55 42.24906 33.31943 35059 ft 487 kts 95°
2026-05-05 23:56 42.23834 33.40959 35053 ft 486 kts 95°
2026-05-05 23:56 42.22753 33.49990 35053 ft 488 kts 95°
2026-05-05 23:57 42.21665 33.59020 35055 ft 488 kts 95°
2026-05-05 23:57 42.20573 33.68018 35059 ft 488 kts 95°
2026-05-05 23:58 42.19469 33.77049 35051 ft 488 kts 95°
2026-05-05 23:58 42.18359 33.86111 35052 ft 490 kts 96°
2026-05-05 23:59 42.17235 33.95190 35054 ft 490 kts 96°
2026-05-05 23:59 42.16102 34.04264 35062 ft 490 kts 96°
2026-05-06 00:00 42.14964 34.13330 35052 ft 490 kts 96°
2026-05-06 00:00 42.13825 34.22356 35062 ft 492 kts 96°
2026-05-06 00:01 42.12667 34.31468 35063 ft 492 kts 97°
2026-05-06 00:01 42.11506 34.40540 35062 ft 491 kts 97°
2026-05-06 00:02 42.10329 34.49551 35079 ft 491 kts 97°
2026-05-06 00:02 42.09069 34.58596 35061 ft 491 kts 98°
2026-05-06 00:03 42.07793 34.67658 35061 ft 491 kts 98°
2026-05-06 00:03 42.06527 34.76670 35061 ft 491 kts 98°
2026-05-06 00:04 42.05257 34.85702 35076 ft 491 kts 98°
2026-05-06 00:04 42.04023 34.94763 35062 ft 492 kts 98°
2026-05-06 00:05 42.02350 35.08321 35062 ft 490 kts 93°
2026-05-06 00:06 42.01783 35.17463 35058 ft 490 kts 92°
2026-05-06 00:06 42.01299 35.26616 35061 ft 490 kts 92°
2026-05-06 00:07 42.00823 35.35710 35059 ft 490 kts 92°
2026-05-06 00:07 42.00330 35.44849 35058 ft 490 kts 92°
2026-05-06 00:08 41.99821 35.54017 35058 ft 490 kts 93°
2026-05-06 00:08 41.99307 35.63149 35060 ft 490 kts 93°
2026-05-06 00:09 41.98784 35.72291 35053 ft 490 kts 93°
2026-05-06 00:09 41.98257 35.81381 35053 ft 490 kts 93°
2026-05-06 00:10 41.97720 35.90521 35055 ft 490 kts 93°
2026-05-06 00:10 41.97177 35.99653 35056 ft 489 kts 94°
2026-05-06 00:11 41.96627 36.08770 35055 ft 490 kts 94°
2026-05-06 00:11 41.96069 36.17887 35057 ft 490 kts 94°
2026-05-06 00:12 41.95504 36.27015 35055 ft 490 kts 94°
2026-05-06 00:12 41.94934 36.36095 35057 ft 490 kts 94°
2026-05-06 00:13 41.94357 36.45180 35053 ft 490 kts 94°
2026-05-06 00:13 41.93769 36.54317 35054 ft 490 kts 94°
2026-05-06 00:14 41.93175 36.63440 35057 ft 490 kts 94°
2026-05-06 00:14 41.92574 36.72547 35056 ft 489 kts 95°
2026-05-06 00:15 41.91972 36.81580 35057 ft 489 kts 95°
2026-05-06 00:15 41.91357 36.90672 35056 ft 489 kts 95°
2026-05-06 00:16 41.90725 36.99775 35051 ft 489 kts 96°
2026-05-06 00:16 41.89073 37.08601 35054 ft 489 kts 110°
2026-05-06 00:17 41.86556 37.17032 35055 ft 489 kts 113°
2026-05-06 00:17 41.83877 37.25439 35056 ft 490 kts 113°
2026-05-06 00:18 41.81186 37.33845 35053 ft 490 kts 113°
2026-05-06 00:18 41.78510 37.42251 35054 ft 490 kts 113°
2026-05-06 00:19 41.75840 37.50647 35054 ft 490 kts 113°
2026-05-06 00:19 41.73180 37.58994 35053 ft 490 kts 113°
2026-05-06 00:20 41.70493 37.67396 35054 ft 490 kts 113°
2026-05-06 00:20 41.67808 37.75781 35050 ft 490 kts 114°
2026-05-06 00:21 41.65112 37.84156 35056 ft 489 kts 114°
2026-05-06 00:21 41.62411 37.92519 35050 ft 490 kts 114°
2026-05-06 00:22 41.59726 38.00814 35056 ft 490 kts 114°
2026-05-06 00:22 41.57011 38.09176 35051 ft 490 kts 114°
2026-05-06 00:23 41.54287 38.17542 35053 ft 490 kts 114°
2026-05-06 00:23 41.51555 38.25904 35051 ft 490 kts 114°
2026-05-06 00:24 41.48840 38.34191 35053 ft 491 kts 114°
2026-05-06 00:24 41.46098 38.42533 35054 ft 491 kts 114°
2026-05-06 00:25 41.43353 38.50862 35055 ft 490 kts 114°
2026-05-06 00:25 41.41073 38.57759 35053 ft 489 kts 114°
2026-05-06 00:26 41.38321 38.66062 35055 ft 489 kts 115°
2026-05-06 00:26 41.35564 38.74354 35053 ft 489 kts 115°
2026-05-06 00:27 41.32824 38.82601 35053 ft 489 kts 114°
2026-05-06 00:27 41.30108 38.90910 35053 ft 489 kts 114°
2026-05-06 00:28 41.27398 38.99210 35053 ft 489 kts 114°
2026-05-06 00:28 41.24674 39.07507 35050 ft 489 kts 114°
2026-05-06 00:29 41.21959 39.15739 35046 ft 489 kts 115°